Tracking 21473 objects as of 27-Sep-2020
HD Live streaming from Space Station
objects crossing your sky now

GALILEO-FM2

Track GALILEO-FM2 now!
GALILEO-FM2 is classified as:


NORAD ID: 37847
Int'l Code: 2011-060B
Perigee: 23,223.4 km
Apogee: 23,234.9 km
Inclination: 56.7 °
Period: 844.7 minutes
Semi major axis: 29600 km
RCS: 48.7715 m2 (large)
Launch date: October 21, 2011
Source: European Space Agency (ESA)
Launch site: FRENCH GUIANA (FRGUI)

GALILEO-FM2 is a navigation satellite part of the European Union's Galileo program.
aabbcc
Your satellite tracking list
Your tracking list is empty




NASA's NSSDC Master Catalog

Two Line Element Set (TLE):
1 37847U 11060B   20270.94006067 -.00000082 +00000-0 +00000-0 0  9991
2 37847 056.6939 038.4977 0001948 303.6573 054.7283 01.70475490055507
Source of the keplerian elements: AFSPC